When you browse on this site, cookies collect data to enhance your experience and personalize the content and advertising you see.
Visit our Privacy Policy to learn more. By continuing to use the site, you agree to this use of cookies and data.
  • Em Portugal
  • Lista de países
  • Para 7 dias
  • Temperatura da água
  • Mapas de satélite
  • Mapa do tempo
  • Widgets de tempo
  • user-avatar
    Iniciar Sessão

    Previsão horária em Safaga

    Hoje, 27 Março, Quarta-feira

    Tempo Temperatura Precipitação Vento Pressão Humidade
    00:00 +16°C° 0 mm 3 m/s 706 mmHg 26%
    01:00 +16°C° 0 mm 3 m/s 706 mmHg 27%
    02:00 +14°C° 0 mm 3 m/s 706 mmHg 27%
    03:00 +15°C° 0 mm 2 m/s 706 mmHg 28%
    04:00 +14°C° 0 mm 2 m/s 706 mmHg 29%
    05:00 +14°C° 0 mm 1 m/s 706 mmHg 30%
    06:00 +15°C° 0 mm 2 m/s 707 mmHg 29%
    07:00 +16°C° 0 mm 2 m/s 707 mmHg 27%
    08:00 +17°C° 0 mm 2 m/s 708 mmHg 25%
    09:00 +18°C° 0 mm 2 m/s 708 mmHg 23%
    10:00 +20°C° 0 mm 2 m/s 708 mmHg 20%
    11:00 +21°C° 0 mm 3 m/s 709 mmHg 18%
    12:00 +22°C° 0 mm 3 m/s 709 mmHg 17%
    13:00 +24°C° 0 mm 3 m/s 708 mmHg 16%
    14:00 +24°C° 0 mm 3 m/s 708 mmHg 15%
    15:00 +24°C° 0 mm 3 m/s 708 mmHg 15%
    16:00 +24°C° 0 mm 3 m/s 708 mmHg 16%
    17:00 +24°C° 0 mm 3 m/s 708 mmHg 17%
    18:00 +22°C° 0 mm 3 m/s 708 mmHg 20%
    19:00 +20°C° 0 mm 2 m/s 708 mmHg 24%
    20:00 +19°C° 0 mm 2 m/s 708 mmHg 27%
    21:00 +20°C° 0 mm 1 m/s 708 mmHg 30%
    22:00 +19°C° 0 mm 1 m/s 708 mmHg 33%
    23:00 +18°C° 0 mm 1 m/s 708 mmHg 35%

    Amanhã, 28 Março, Quinta-feira

    Tempo Temperatura Precipitação Vento Pressão Humidade
    00:00 +16°C° 0 mm 0 m/s 708 mmHg 37%
    01:00 +15°C° 0 mm 0 m/s 708 mmHg 38%
    02:00 +14°C° 0 mm 0 m/s 707 mmHg 39%
    03:00 +14°C° 0 mm 0 m/s 707 mmHg 38%
    04:00 +13°C° 0 mm 0 m/s 707 mmHg 38%
    05:00 +13°C° 0 mm 0 m/s 707 mmHg 37%
    06:00 +16°C° 0 mm 1 m/s 708 mmHg 33%
    07:00 +18°C° 0 mm 1 m/s 708 mmHg 28%
    08:00 +19°C° 0 mm 2 m/s 709 mmHg 23%
    09:00 +20°C° 0 mm 2 m/s 709 mmHg 20%
    10:00 +23°C° 0 mm 2 m/s 709 mmHg 18%
    11:00 +24°C° 0 mm 3 m/s 709 mmHg 16%
    12:00 +24°C° 0 mm 2 m/s 709 mmHg 15%
    13:00 +25°C° 0 mm 2 m/s 708 mmHg 14%
    14:00 +26°C° 0 mm 2 m/s 708 mmHg 14%
    15:00 +25°C° 0 mm 2 m/s 707 mmHg 15%
    16:00 +25°C° 0 mm 2 m/s 707 mmHg 16%
    17:00 +24°C° 0 mm 3 m/s 706 mmHg 17%
    18:00 +23°C° 0 mm 2 m/s 706 mmHg 20%
    19:00 +21°C° 0 mm 2 m/s 706 mmHg 23%
    20:00 +21°C° 0 mm 1 m/s 706 mmHg 26%
    21:00 +21°C° 0 mm 1 m/s 706 mmHg 27%
    22:00 +20°C° 0 mm 1 m/s 706 mmHg 27%
    23:00 +17°C° 0 mm 0 m/s 706 mmHg 28%

    Depois de amanhã, 29 Março, Sexta-feira

    Tempo Temperatura Precipitação Vento Pressão Humidade
    00:00 +17°C° 0 mm 0 m/s 705 mmHg 28%
    01:00 +16°C° 0 mm 0 m/s 705 mmHg 27%
    02:00 +16°C° 0 mm 0 m/s 704 mmHg 27%
    03:00 +16°C° 0 mm 0 m/s 704 mmHg 27%
    04:00 +15°C° 0 mm 0 m/s 704 mmHg 27%
    05:00 +15°C° 0 mm 0 m/s 703 mmHg 27%
    06:00 +17°C° 0 mm 0 m/s 704 mmHg 23%
    07:00 +19°C° 0 mm 0 m/s 704 mmHg 20%
    08:00 +23°C° 0 mm 1 m/s 705 mmHg 16%
    09:00 +24°C° 0 mm 1 m/s 705 mmHg 14%
    10:00 +26°C° 0 mm 1 m/s 705 mmHg 12%
    11:00 +27°C° 0 mm 1 m/s 705 mmHg 10%
    12:00 +28°C° 0 mm 1 m/s 704 mmHg 10%
    13:00 +29°C° 0 mm 2 m/s 704 mmHg 10%
    14:00 +30°C° 0 mm 2 m/s 703 mmHg 10%
    15:00 +30°C° 0 mm 2 m/s 703 mmHg 10%
    16:00 +30°C° 0 mm 3 m/s 703 mmHg 10%
    17:00 +30°C° 0 mm 3 m/s 702 mmHg 11%
    18:00 +29°C° 0 mm 2 m/s 702 mmHg 11%
    19:00 +28°C° 0 mm 2 m/s 702 mmHg 12%
    20:00 +27°C° 0 mm 1 m/s 702 mmHg 13%
    21:00 +27°C° 0 mm 1 m/s 702 mmHg 13%
    22:00 +26°C° 0 mm 2 m/s 701 mmHg 13%
    23:00 +26°C° 0 mm 2 m/s 701 mmHg 14%

    30 Março, Sábado

    Tempo Temperatura Precipitação Vento Pressão Humidade
    00:00 +25°C° 0 mm 2 m/s 700 mmHg 14%
    01:00 +25°C° 0 mm 2 m/s 700 mmHg 13%
    02:00 +25°C° 0 mm 2 m/s 700 mmHg 13%
    03:00 +23°C° 0 mm 4 m/s 700 mmHg 21%
    04:00 +22°C° 0 mm 6 m/s 700 mmHg 28%
    05:00 +21°C° 0 mm 7 m/s 700 mmHg 35%
    06:00 +21°C° 0 mm 8 m/s 700 mmHg 36%
    07:00 +19°C° 0 mm 9 m/s 701 mmHg 37%
    08:00 +19°C° 0 mm 10 m/s 702 mmHg 38%
    09:00 +21°C° 0 mm 10 m/s 702 mmHg 31%
    10:00 +22°C° 0 mm 10 m/s 702 mmHg 24%
    11:00 +23°C° 0 mm 10 m/s 702 mmHg 17%
    12:00 +23°C° 0 mm 10 m/s 702 mmHg 16%
    13:00 +24°C° 0 mm 10 m/s 701 mmHg 14%
    14:00 +24°C° 0 mm 10 m/s 701 mmHg 12%
    15:00 +24°C° 0 mm 10 m/s 701 mmHg 14%
    16:00 +23°C° 0 mm 9 m/s 700 mmHg 16%
    17:00 +22°C° 0 mm 9 m/s 700 mmHg 17%
    18:00 +21°C° 0 mm 8 m/s 701 mmHg 21%
    19:00 +21°C° 0 mm 7 m/s 701 mmHg 24%
    20:00 +20°C° 0 mm 7 m/s 702 mmHg 27%
    21:00 +18°C° 0 mm 7 m/s 702 mmHg 28%
    22:00 +17°C° 0 mm 7 m/s 702 mmHg 28%
    23:00 +16°C° 0 mm 8 m/s 702 mmHg 29%

    31 Março, Domingo

    Tempo Temperatura Precipitação Vento Pressão Humidade
    00:00 +15°C° 0 mm 8 m/s 701 mmHg 30%
    01:00 +13°C° 0 mm 8 m/s 701 mmHg 31%
    02:00 +12°C° 0 mm 9 m/s 701 mmHg 32%
    03:00 +11°C° 0 mm 8 m/s 701 mmHg 33%
    04:00 +11°C° 0 mm 8 m/s 701 mmHg 35%
    05:00 +10°C° 0 mm 8 m/s 701 mmHg 36%
    06:00 +10°C° 0 mm 8 m/s 702 mmHg 35%
    07:00 +11°C° 0 mm 9 m/s 702 mmHg 34%
    08:00 +11°C° 0 mm 9 m/s 703 mmHg 33%
    09:00 +12°C° 0 mm 10 m/s 703 mmHg 29%
    10:00 +14°C° 0 mm 10 m/s 703 mmHg 25%
    11:00 +16°C° 0 mm 10 m/s 703 mmHg 21%
    12:00 +16°C° 0 mm 10 m/s 703 mmHg 21%
    13:00 +17°C° 0 mm 11 m/s 702 mmHg 20%
    14:00 +18°C° 0 mm 11 m/s 702 mmHg 20%
    15:00 +17°C° 0 mm 11 m/s 702 mmHg 21%
    16:00 +17°C° 0 mm 10 m/s 702 mmHg 22%
    17:00 +16°C° 0 mm 10 m/s 702 mmHg 23%
    18:00 +15°C° 0 mm 9 m/s 702 mmHg 23%
    19:00 +13°C° 0 mm 9 m/s 703 mmHg 23%
    20:00 +12°C° 0 mm 8 m/s 703 mmHg 23%
    21:00 +12°C° 0 mm 8 m/s 703 mmHg 23%
    22:00 +11°C° 0 mm 7 m/s 704 mmHg 23%
    23:00 +11°C° 0 mm 7 m/s 704 mmHg 24%

    1 Abril, Segunda-feira

    Tempo Temperatura Precipitação Vento Pressão Humidade
    00:00 +10°C° 0 mm 7 m/s 703 mmHg 26%
    01:00 +10°C° 0 mm 7 m/s 703 mmHg 29%
    02:00 +9°C° 0 mm 6 m/s 703 mmHg 31%
    03:00 +9°C° 0 mm 6 m/s 703 mmHg 35%
    04:00 +8°C° 0 mm 6 m/s 703 mmHg 39%
    05:00 +8°C° 0 mm 5 m/s 703 mmHg 42%
    06:00 +9°C° 0 mm 6 m/s 704 mmHg 42%
    07:00 +9°C° 0 mm 7 m/s 705 mmHg 41%
    08:00 +10°C° 0 mm 8 m/s 705 mmHg 40%
    09:00 +12°C° 0 mm 8 m/s 705 mmHg 36%
    10:00 +13°C° 0 mm 9 m/s 705 mmHg 31%
    11:00 +15°C° 0 mm 9 m/s 706 mmHg 27%
    12:00 +16°C° 0 mm 9 m/s 705 mmHg 24%
    13:00 +17°C° 0 mm 9 m/s 705 mmHg 21%
    14:00 +18°C° 0 mm 9 m/s 705 mmHg 19%
    15:00 +18°C° 0 mm 9 m/s 705 mmHg 18%
    16:00 +17°C° 0 mm 8 m/s 705 mmHg 18%
    17:00 +17°C° 0 mm 8 m/s 704 mmHg 18%
    18:00 +16°C° 0 mm 7 m/s 705 mmHg 19%
    19:00 +15°C° 0 mm 6 m/s 705 mmHg 21%
    20:00 +14°C° 0 mm 6 m/s 705 mmHg 22%
    21:00 +14°C° 0 mm 5 m/s 705 mmHg 24%
    22:00 +13°C° 0 mm 4 m/s 705 mmHg 26%
    23:00 +13°C° 0 mm 3 m/s 704 mmHg 28%
    Mostrar mais